Location: Allos
(44.2333°N, 6.6333°E)
Time: 13:12:18
(UTC+00:00)

SL-8 Rocket - Pass Details

Date: 01 December 2020
Orbit: 958 x 990 km, 82.9° (Epoch: 26 January)

Event Time Altitude Azimuth Distance (km) Brightness Sun altitude
Rises 17:13:59 0° 349° (N) 3,680 7.0 -13.6°
Reaches altitude 10° 17:16:30 10° 347° (NNW) 2,733 6.3 -14.0°
Maximum altitude 17:22:42 68° 267° (W) 1,055 4.4 -15.1°
Drops below altitude 10° 17:28:56 10° 185° (S) 2,735 6.6 -16.2°
Sets 17:31:27 0° 183° (S) 3,682 7.3 -16.6°
